Notices

What's New in latest Release from April 7th, 2021:

- Updated Glossary, including Speed of Maximum Gust, and Total Hourly Precipitation

- Updated national and regional climate services offices contacts and prices information

- Addition of station inventory lists for 1981-2010, 1971-2000, and 1961-1990 Normals.

If you haven't already, please take our survey and provide feedback about our website: https://eccc.sondage-survey.ca/f/LanguageSelection.aspx?s=442ca660-fcf1-47c0-95a9-59707d6fd709

Hourly Data Report for October 04, 2006

TORONTO CITY
ONTARIO

43°40'00.000" N
79°24'00.000" W
112.50 m
6158355
71508
XTO

Download Data

Hourly Data (October 2006)
Hourly Data Report for October 4, 2006
TIME
LST
Temp Definition
°C
Dew Point Definition
°C
Rel Hum Definition
%
Precip. Amount Definition
mm

Wind Dir Definition
10's deg

Wind Spd Definition
km/h
Visibility Definition
km
Stn Press Definition
kPa
Hmdx Definition


Wind Chill Definition


Weather Definition


00:00 15.0 14.9 99   LegendMM LegendMM   100.49     LegendNANA
01:00 14.8 14.7 99   LegendMM LegendMM   100.49     LegendNANA
02:00 14.4 14.4 100   LegendMM LegendMM   100.33     LegendNANA
03:00 14.0 14.0 100   LegendMM LegendMM   100.27     LegendNANA
04:00 14.1 14.1 100   LegendMM LegendMM   100.21     LegendNANA
05:00 14.5 14.5 100   LegendMM LegendMM   100.11     LegendNANA
06:00 15.1 15.1 100   LegendMM LegendMM   100.05     LegendNANA
07:00 15.9 15.9 100   LegendMM LegendMM   100.00     LegendNANA
08:00 16.5 16.5 100   LegendMM LegendMM   99.90     LegendNANA
09:00 17.4 16.9 97   LegendMM LegendMM   99.87     LegendNANA
10:00 17.5 16.7 95   LegendMM LegendMM   99.94     LegendNANA
11:00 16.6 16.2 97   LegendMM LegendMM   99.90     LegendNANA
12:00 17.5 17.3 99   LegendMM LegendMM   99.88     LegendNANA
13:00 17.9 17.8 99   LegendMM LegendMM   99.81     LegendNANA
14:00 18.9 18.7 99   LegendMM LegendMM   99.78     LegendNANA
15:00 15.2 14.5 96   LegendMM LegendMM   99.91     LegendNANA
16:00 14.5 12.8 90   LegendMM LegendMM   100.07     LegendNANA
17:00 14.0 11.6 85   LegendMM LegendMM   100.27     LegendNANA
18:00 13.2 10.2 82   LegendMM LegendMM   100.46     LegendNANA
19:00 12.5 8.2 75   LegendMM LegendMM   100.64     LegendNANA
20:00 12.0 8.0 76   LegendMM LegendMM   100.83     LegendNANA
21:00 11.3 5.9 69   LegendMM LegendMM   100.99     LegendNANA
22:00 10.7 5.5 70   LegendMM LegendMM   101.08     LegendNANA
23:00 9.9 3.3 63   LegendMM LegendMM   101.11     LegendNANA

Notes on Data Quality.

Legend

  • E = Estimated
  • M = Missing
  • NA = Not Available*
  • [empty] = Indicates an unobserved value
Date modified: